QPF
0.01 0.01 0.00 0.00 0.01 0.01 0.01 0.01 0.01 0.00 0.01 0.00 0.00 0.00 0.01 0.01 0.00 0.01 0.01 0.01 0.02 0.02 0.02 0.03 0.02 0.02 0.02 0.02 0.02 0.02 0.01 0.01 0.01 0.01 0.01 0.01 0.01 0.02 0.02 0.01 0.00 0.00 0.00 0.00
0.01 0.01 0.01 0.00 0.00 0.00 0.01 0.01 0.00 0.00 0.00 0.01 0.00 0.00 0.01 0.01 0.00 0.00 0.00 0.01 0.01 0.01 0.01 0.02 0.02 0.01 0.01 0.01 0.01 0.01 0.01 0.00 0.00 0.01 0.01 0.01 0.02 0.02 0.02 0.01 0.00 0.00 0.00 0.01
0.00 0.01 0.01 0.02 0.02 0.01 0.01 0.01 0.00 0.00 0.00 0.00 0.00 0.01 0.01 0.01 0.01 0.01 0.01 0.01 0.01 0.01 0.01 0.02 0.02 0.01 0.01 0.01 0.01 0.01 0.00 0.00 0.01 0.01 0.01 0.01 0.02 0.03 0.02 0.01 0.01 0.00 0.00 0.00
0.00 0.01 0.02 0.02 0.03 0.02 0.02 0.01 0.01 0.01 0.01 0.00 0.01 0.01 0.01 0.01 0.01 0.02 0.02 0.02 0.02 0.02 0.02 0.03 0.03 0.03 0.02 0.02 0.01 0.01 0.01 0.01 0.01 0.01 0.01 0.01 0.01 0.01 0.02 0.02 0.01 0.01 0.01 0.01
0.01 0.01 0.02 0.04 0.03 0.04 0.05 0.04 0.02 0.01 0.01 0.01 0.01 0.01 0.01 0.01 0.01 0.01 0.02 0.03 0.03 0.03 0.04 0.04 0.04 0.05 0.04 0.03 0.03 0.03 0.02 0.01 0.01 0.02 0.02 0.02 0.02 0.02 0.03 0.03 0.02 0.03 0.03 0.02
0.01 0.02 0.02 0.04 0.04 0.03 0.04 0.04 0.02 0.01 0.02 0.02 0.02 0.02 0.02 0.02 0.02 0.01 0.02 0.03 0.03 0.03 0.04 0.06 0.06 0.06 0.05 0.05 0.04 0.03 0.02 0.02 0.03 0.03 0.03 0.04 0.06 0.07 0.07 0.05 0.04 0.05 0.04 0.03
0.02 0.02 0.02 0.03 0.03 0.04 0.06 0.04 0.02 0.02 0.03 0.04 0.04 0.06 0.07 0.05 0.04 0.04 0.03 0.03 0.05 0.07 0.07 0.07 0.08 0.07 0.05 0.05 0.04 0.05 0.05 0.06 0.07 0.07 0.08 0.10 0.11 0.12 0.11 0.12 0.11 0.09 0.07 0.06
0.03 0.03 0.04 0.03 0.04 0.04 0.04 0.03 0.03 0.03 0.03 0.03 0.04 0.09 0.09 0.07 0.06 0.06 0.07 0.08 0.07 0.09 0.08 0.09 0.09 0.08 0.07 0.07 0.08 0.10 0.10 0.12 0.13 0.14 0.15 0.14 0.15 0.19 0.22 0.21 0.17 0.12 0.10 0.09
0.04 0.03 0.03 0.03 0.05 0.05 0.04 0.04 0.03 0.03 0.03 0.03 0.04 0.07 0.07 0.08 0.08 0.06 0.06 0.10 0.09 0.10 0.09 0.09 0.10 0.10 0.11 0.11 0.13 0.13 0.13 0.15 0.17 0.17 0.19 0.19 0.19 0.19 0.17 0.16 0.13 0.11 0.11 0.10
0.06 0.06 0.06 0.06 0.07 0.07 0.05 0.05 0.06 0.05 0.06 0.07 0.06 0.05 0.05 0.07 0.07 0.07 0.07 0.07 0.06 0.08 0.09 0.10 0.12 0.14 0.14 0.13 0.14 0.15 0.15 0.14 0.15 0.17 0.16 0.15 0.14 0.12 0.11 0.11 0.12 0.12 0.12 0.11
0.11 0.12 0.09 0.08 0.09 0.12 0.10 0.08 0.10 0.11 0.11 0.13 0.11 0.09 0.09 0.08 0.09 0.09 0.10 0.10 0.08 0.08 0.09 0.11 0.12 0.14 0.14 0.14 0.14 0.14 0.15 0.16 0.18 0.19 0.18 0.16 0.15 0.14 0.14 0.14 0.15 0.15 0.15 0.15
0.13 0.13 0.11 0.12 0.14 0.16 0.15 0.08 0.07 0.11 0.12 0.10 0.09 0.09 0.11 0.11 0.10 0.09 0.09 0.09 0.10 0.11 0.11 0.11 0.12 0.12 0.11 0.10 0.11 0.11 0.12 0.13 0.16 0.19 0.19 0.19 0.17 0.17 0.16 0.15 0.15 0.15 0.15 0.13
0.09 0.09 0.10 0.11 0.14 0.16 0.19 0.13 0.08 0.09 0.11 0.12 0.10 0.10 0.10 0.08 0.08 0.09 0.08 0.08 0.08 0.08 0.08 0.08 0.09 0.09 0.09 0.08 0.10 0.13 0.15 0.15 0.16 0.16 0.16 0.16 0.15 0.14 0.13 0.11 0.10 0.09 0.07 0.06
0.08 0.08 0.07 0.09 0.14 0.14 0.17 0.20 0.11 0.08 0.10 0.14 0.14 0.14 0.12 0.09 0.08 0.07 0.07 0.07 0.06 0.06 0.06 0.07 0.06 0.07 0.07 0.08 0.09 0.10 0.10 0.10 0.10 0.10 0.10 0.10 0.10 0.09 0.08 0.06 0.06 0.05 0.05 0.05
0.07 0.08 0.08 0.08 0.09 0.11 0.15 0.20 0.19 0.13 0.09 0.09 0.11 0.15 0.15 0.12 0.11 0.08 0.05 0.05 0.05 0.04 0.04 0.05 0.04 0.03 0.03 0.04 0.05 0.06 0.06 0.06 0.06 0.07 0.07 0.08 0.08 0.08 0.08 0.07 0.06 0.05 0.05 0.05
0.06 0.08 0.08 0.08 0.09 0.10 0.12 0.15 0.16 0.13 0.09 0.08 0.07 0.09 0.10 0.11 0.10 0.07 0.04 0.03 0.03 0.03 0.03 0.03 0.04 0.04 0.03 0.03 0.03 0.04 0.04 0.04 0.04 0.04 0.04 0.04 0.05 0.05 0.05 0.05 0.05 0.04 0.04 0.04
0.07 0.08 0.09 0.11 0.10 0.10 0.11 0.11 0.11 0.09 0.07 0.06 0.06 0.07 0.06 0.05 0.05 0.04 0.03 0.02 0.02 0.03 0.03 0.03 0.03 0.03 0.03 0.04 0.05 0.05 0.05 0.05 0.05 0.04 0.03 0.03 0.03 0.04 0.04 0.05 0.06 0.06 0.06 0.06
0.06 0.07 0.09 0.08 0.07 0.06 0.07 0.06 0.04 0.04 0.04 0.04 0.05 0.05 0.05 0.03 0.02 0.02 0.02 0.02 0.02 0.03 0.03 0.03 0.02 0.02 0.02 0.02 0.03 0.04 0.04 0.04 0.04 0.03 0.03 0.02 0.03 0.04 0.04 0.05 0.05 0.05 0.05 0.05
0.04 0.05 0.06 0.06 0.06 0.06 0.05 0.03 0.02 0.02 0.01 0.02 0.03 0.05 0.04 0.04 0.04 0.03 0.04 0.03 0.02 0.02 0.02 0.02 0.01 0.01 0.01 0.01 0.01 0.02 0.02 0.02 0.02 0.02 0.02 0.02 0.02 0.02 0.02 0.02 0.02 0.02 0.02 0.02
0.03 0.04 0.05 0.06 0.07 0.06 0.04 0.03 0.02 0.02 0.01 0.01 0.01 0.01 0.03 0.03 0.03 0.03 0.03 0.04 0.04 0.03 0.03 0.02 0.01 0.01 0.01 0.00 0.00 0.00 0.01 0.01 0.01 0.00 0.00 0.00 0.00 0.01 0.01 0.01 0.01 0.01 0.00 0.00
0.04 0.04 0.04 0.04 0.05 0.04 0.03 0.03 0.02 0.02 0.02 0.01 0.00 0.00 0.01 0.02 0.02 0.02 0.02 0.02 0.02 0.02 0.02 0.02 0.02 0.02 0.01 0.01 0.00 0.00 0.00 0.00 0.00 0.00 0.00 0.00 0.00 0.00 0.00 0.00 0.00 0.00 0.00 0.00
0.04 0.05 0.05 0.04 0.04 0.03 0.03 0.02 0.02 0.02 0.01 0.01 0.01 0.01 0.01 0.01 0.01 0.00 0.00 0.01 0.01 0.01 0.01 0.00 0.00 0.00 0.00 0.00 0.00 0.00 0.00 0.00 0.00 0.00 0.00 0.00 0.00 0.00 0.00 0.00 0.00 0.00 0.00 0.00
0.02 0.02 0.03 0.02 0.02 0.02 0.01 0.01 0.01 0.01 0.01 0.01 0.01 0.01 0.00 0.00 0.00 0.00 0.00 0.00 0.00 0.00 0.00 0.00 0.00 0.00 0.00 0.00 0.00 0.00 0.00 0.00 0.00 0.00 0.00 0.00 0.00 0.00 0.00 0.00 0.00 0.00 0.01 0.01
0.01 0.01 0.01 0.01 0.00 0.00 0.00 0.00 0.00 0.00 0.01 0.00 0.00 0.00 0.00 0.00 0.00 0.00 0.00 0.00 0.00 0.00 0.00 0.00 0.00 0.00 0.00 0.00 0.00 0.00 0.00 0.00 0.00 0.00 0.00 0.00 0.00 0.00 0.00 0.00 0.00 0.00 0.00 0.00
0.01 0.00 0.00 0.00 0.00 0.01 0.00 0.00 0.00 0.00 0.00 0.00 0.00 0.00 0.00 0.00 0.00 0.00 0.00 0.00 0.00 0.00 0.00 0.00 0.00 0.00 0.00 0.00 0.00 0.00 0.00 0.00 0.00 0.00 0.00 0.00 0.00 0.00 0.00 0.00 0.00 0.00 0.00 0.00
0.01 0.01 0.01 0.00 0.01 0.01 0.01 0.01 0.01 0.00 0.00 0.00 0.00 0.00 0.00 0.00 0.00 0.00 0.00 0.00 0.00 0.00 0.00 0.00 0.00 0.00 0.00 0.00 0.00 0.00 0.00 0.00 0.00 0.00 0.00 0.00 0.00 0.00 0.00 0.00 0.00 0.00 0.00 0.00
0.01 0.01 0.01 0.01 0.00 0.00 0.00 0.00 0.00 0.00 0.00 0.00 0.00 0.00 0.00 0.00 0.00 0.00 0.00 0.00 0.00 0.00 0.00 0.00 0.00 0.00 0.00 0.00 0.01 0.00 0.00 0.00 0.00 0.00 0.00 0.00 0.00 0.00 0.00 0.00 0.00 0.00 0.00 0.00
MSLP
1008.67 1009.05 1009.35 1009.56 1009.68 1009.67 1009.54 1009.27 1008.87 1008.37 1007.80 1007.21 1006.68 1006.25 1005.96 1005.86 1005.93 1006.16 1006.51 1006.94 1007.40 1007.85 1008.27 1008.65 1009.01 1009.36 1009.73 1010.15 1010.61 1011.11 1011.65 1012.18 1012.70 1013.17 1013.58 1013.93 1014.24 1014.51 1014.77 1015.03 1015.32 1015.63 1015.96 1016.29
1009.16 1009.43 1009.56 1009.56 1009.42 1009.16 1008.81 1008.37 1007.87 1007.35 1006.83 1006.36 1005.96 1005.67 1005.50 1005.46 1005.55 1005.74 1006.02 1006.36 1006.73 1007.11 1007.50 1007.89 1008.31 1008.75 1009.22 1009.74 1010.29 1010.86 1011.44 1011.98 1012.49 1012.94 1013.32 1013.65 1013.94 1014.20 1014.46 1014.72 1014.99 1015.27 1015.56 1015.83
1009.68 1009.84 1009.81 1009.62 1009.27 1008.81 1008.28 1007.71 1007.14 1006.60 1006.12 1005.72 1005.41 1005.20 1005.08 1005.05 1005.09 1005.20 1005.37 1005.59 1005.85 1006.16 1006.52 1006.93 1007.41 1007.95 1008.54 1009.18 1009.83 1010.48 1011.10 1011.66 1012.16 1012.58 1012.93 1013.23 1013.48 1013.72 1013.95 1014.19 1014.44 1014.69 1014.94 1015.17
1010.15 1010.20 1010.05 1009.71 1009.22 1008.62 1007.98 1007.32 1006.71 1006.17 1005.71 1005.35 1005.07 1004.87 1004.74 1004.65 1004.60 1004.58 1004.61 1004.69 1004.84 1005.07 1005.41 1005.85 1006.40 1007.04 1007.75 1008.51 1009.27 1010.00 1010.67 1011.24 1011.73 1012.11 1012.42 1012.66 1012.87 1013.07 1013.27 1013.48 1013.70 1013.93 1014.15 1014.35
1010.48 1010.43 1010.18 1009.75 1009.18 1008.51 1007.81 1007.14 1006.52 1005.99 1005.55 1005.19 1004.92 1004.69 1004.48 1004.30 1004.12 1003.95 1003.83 1003.77 1003.81 1003.98 1004.29 1004.76 1005.38 1006.12 1006.95 1007.82 1008.68 1009.48 1010.18 1010.77 1011.23 1011.58 1011.83 1012.02 1012.18 1012.33 1012.49 1012.67 1012.87 1013.08 1013.28 1013.46
1010.56 1010.42 1010.10 1009.62 1009.02 1008.35 1007.66 1007.01 1006.42 1005.92 1005.51 1005.16 1004.86 1004.58 1004.30 1004.00 1003.69 1003.39 1003.12 1002.94 1002.89 1003.00 1003.30 1003.79 1004.47 1005.30 1006.22 1007.18 1008.11 1008.96 1009.70 1010.28 1010.73 1011.03 1011.24 1011.38 1011.49 1011.60 1011.73 1011.89 1012.07 1012.27 1012.47 1012.64
1010.31 1010.09 1009.72 1009.23 1008.64 1008.00 1007.37 1006.78 1006.26 1005.82 1005.44 1005.11 1004.80 1004.49 1004.14 1003.76 1003.35 1002.94 1002.58 1002.31 1002.19 1002.26 1002.56 1003.07 1003.79 1004.66 1005.65 1006.66 1007.64 1008.52 1009.27 1009.85 1010.27 1010.55 1010.72 1010.82 1010.90 1010.98 1011.09 1011.24 1011.42 1011.62 1011.82 1012.00
1009.71 1009.41 1008.99 1008.49 1007.94 1007.37 1006.82 1006.31 1005.88 1005.51 1005.20 1004.92 1004.63 1004.32 1003.96 1003.54 1003.10 1002.65 1002.25 1001.94 1001.80 1001.87 1002.16 1002.68 1003.41 1004.31 1005.30 1006.33 1007.32 1008.20 1008.94 1009.51 1009.92 1010.19 1010.34 1010.43 1010.49 1010.56 1010.67 1010.82 1011.00 1011.21 1011.42 1011.61
1008.81 1008.41 1007.95 1007.44 1006.92 1006.41 1005.94 1005.53 1005.19 1004.92 1004.70 1004.49 1004.27 1004.02 1003.71 1003.35 1002.94 1002.53 1002.17 1001.90 1001.78 1001.86 1002.16 1002.68 1003.39 1004.27 1005.24 1006.24 1007.19 1008.05 1008.77 1009.32 1009.72 1009.98 1010.14 1010.24 1010.31 1010.39 1010.51 1010.67 1010.86 1011.08 1011.30 1011.50
1007.70 1007.21 1006.69 1006.16 1005.65 1005.19 1004.79 1004.46 1004.22 1004.04 1003.92 1003.82 1003.72 1003.58 1003.40 1003.17 1002.89 1002.61 1002.35 1002.18 1002.14 1002.26 1002.57 1003.07 1003.75 1004.57 1005.47 1006.39 1007.28 1008.08 1008.76 1009.30 1009.69 1009.97 1010.15 1010.27 1010.37 1010.49 1010.62 1010.79 1011.00 1011.21 1011.44 1011.65
1006.54 1005.96 1005.38 1004.82 1004.31 1003.86 1003.51 1003.24 1003.07 1002.98 1002.96 1002.99 1003.04 1003.07 1003.07 1003.03 1002.96 1002.87 1002.79 1002.77 1002.84 1003.03 1003.36 1003.84 1004.45 1005.18 1005.97 1006.79 1007.58 1008.30 1008.93 1009.44 1009.84 1010.14 1010.36 1010.53 1010.67 1010.82 1010.98 1011.16 1011.36 1011.58 1011.79 1011.98
1005.51 1004.85 1004.22 1003.63 1003.10 1002.65 1002.30 1002.07 1001.94 1001.93 1002.01 1002.16 1002.37 1002.59 1002.81 1003.01 1003.18 1003.33 1003.47 1003.63 1003.83 1004.10 1004.45 1004.90 1005.44 1006.05 1006.72 1007.40 1008.08 1008.71 1009.28 1009.76 1010.17 1010.50 1010.76 1010.97 1011.17 1011.35 1011.52 1011.71 1011.90 1012.09 1012.27 1012.44
1004.74 1004.05 1003.39 1002.78 1002.23 1001.77 1001.42 1001.19 1001.09 1001.12 1001.27 1001.54 1001.89 1002.30 1002.73 1003.17 1003.59 1003.99 1004.36 1004.70 1005.04 1005.38 1005.75 1006.15 1006.61 1007.10 1007.63 1008.18 1008.73 1009.27 1009.77 1010.24 1010.65 1011.00 1011.31 1011.58 1011.81 1012.02 1012.20 1012.38 1012.54 1012.69 1012.83 1012.94
1004.32 1003.66 1003.02 1002.41 1001.87 1001.40 1001.04 1000.80 1000.70 1000.76 1000.96 1001.30 1001.77 1002.33 1002.95 1003.60 1004.24 1004.85 1005.41 1005.92 1006.37 1006.77 1007.15 1007.51 1007.87 1008.24 1008.64 1009.06 1009.50 1009.95 1010.40 1010.84 1011.25 1011.64 1011.99 1012.29 1012.55 1012.78 1012.96 1013.11 1013.23 1013.33 1013.40 1013.45
1004.28 1003.70 1003.13 1002.57 1002.06 1001.62 1001.26 1001.03 1000.93 1000.98 1001.21 1001.59 1002.13 1002.79 1003.53 1004.32 1005.12 1005.89 1006.59 1007.22 1007.75 1008.19 1008.55 1008.86 1009.14 1009.41 1009.69 1009.99 1010.33 1010.71 1011.12 1011.54 1011.96 1012.37 1012.75 1013.08 1013.36 1013.58 1013.75 1013.86 1013.92 1013.96 1013.96 1013.95
1004.56 1004.12 1003.67 1003.22 1002.79 1002.40 1002.09 1001.86 1001.77 1001.82 1002.04 1002.43 1002.99 1003.69 1004.49 1005.35 1006.23 1007.08 1007.86 1008.53 1009.10 1009.54 1009.88 1010.14 1010.35 1010.53 1010.71 1010.93 1011.20 1011.52 1011.90 1012.31 1012.74 1013.16 1013.56 1013.90 1014.18 1014.39 1014.52 1014.59 1014.60 1014.56 1014.50 1014.42
1005.07 1004.81 1004.52 1004.22 1003.92 1003.63 1003.38 1003.20 1003.13 1003.18 1003.39 1003.76 1004.29 1004.97 1005.76 1006.62 1007.49 1008.35 1009.13 1009.81 1010.36 1010.78 1011.08 1011.29 1011.44 1011.56 1011.68 1011.84 1012.06 1012.35 1012.70 1013.11 1013.54 1013.97 1014.36 1014.71 1014.98 1015.16 1015.26 1015.27 1015.22 1015.12 1015.00 1014.87
1005.70 1005.63 1005.53 1005.41 1005.26 1005.10 1004.95 1004.84 1004.81 1004.87 1005.06 1005.39 1005.88 1006.49 1007.21 1008.00 1008.82 1009.61 1010.34 1010.97 1011.48 1011.86 1012.12 1012.29 1012.39 1012.48 1012.56 1012.70 1012.90 1013.17 1013.51 1013.90 1014.32 1014.74 1015.13 1015.46 1015.70 1015.85 1015.91 1015.88 1015.78 1015.63 1015.45 1015.28
1006.35 1006.45 1006.53 1006.59 1006.60 1006.59 1006.57 1006.55 1006.57 1006.66 1006.84 1007.13 1007.54 1008.07 1008.69 1009.38 1010.09 1010.78 1011.42 1011.97 1012.42 1012.75 1012.98 1013.12 1013.21 1013.28 1013.37 1013.49 1013.69 1013.95 1014.28 1014.66 1015.06 1015.46 1015.82 1016.11 1016.32 1016.43 1016.45 1016.38 1016.24 1016.05 1015.85 1015.64
1006.94 1007.18 1007.41 1007.62 1007.79 1007.91 1008.01 1008.09 1008.18 1008.30 1008.48 1008.74 1009.09 1009.53 1010.04 1010.61 1011.20 1011.78 1012.32 1012.79 1013.17 1013.46 1013.67 1013.81 1013.91 1013.99 1014.09 1014.23 1014.43 1014.69 1015.01 1015.36 1015.73 1016.09 1016.40 1016.65 1016.81 1016.88 1016.87 1016.77 1016.60 1016.40 1016.18 1015.97
1007.46 1007.78 1008.11 1008.42 1008.71 1008.95 1009.15 1009.33 1009.48 1009.65 1009.84 1010.07 1010.37 1010.73 1011.14 1011.60 1012.08 1012.56 1013.01 1013.42 1013.75 1014.02 1014.23 1014.39 1014.51 1014.63 1014.76 1014.93 1015.13 1015.39 1015.68 1016.00 1016.32 1016.62 1016.88 1017.07 1017.18 1017.22 1017.17 1017.05 1016.88 1016.68 1016.46 1016.25
1007.92 1008.26 1008.63 1009.01 1009.36 1009.68 1009.96 1010.20 1010.42 1010.62 1010.82 1011.05 1011.31 1011.61 1011.95 1012.33 1012.73 1013.13 1013.52 1013.88 1014.20 1014.47 1014.70 1014.90 1015.07 1015.23 1015.40 1015.59 1015.81 1016.05 1016.31 1016.58 1016.84 1017.07 1017.26 1017.39 1017.45 1017.45 1017.38 1017.26 1017.09 1016.91 1016.71 1016.51
1008.36 1008.69 1009.05 1009.43 1009.81 1010.16 1010.48 1010.76 1011.02 1011.24 1011.46 1011.68 1011.92 1012.19 1012.48 1012.81 1013.16 1013.52 1013.88 1014.23 1014.55 1014.86 1015.13 1015.38 1015.60 1015.82 1016.03 1016.24 1016.46 1016.68 1016.90 1017.11 1017.30 1017.46 1017.58 1017.65 1017.66 1017.63 1017.55 1017.43 1017.29 1017.13 1016.96 1016.79
1008.85 1009.12 1009.44 1009.79 1010.15 1010.49 1010.82 1011.11 1011.38 1011.62 1011.84 1012.06 1012.29 1012.54 1012.81 1013.11 1013.44 1013.78 1014.14 1014.50 1014.86 1015.20 1015.53 1015.84 1016.13 1016.39 1016.64 1016.87 1017.09 1017.28 1017.46 1017.61 1017.73 1017.82 1017.87 1017.88 1017.86 1017.80 1017.72 1017.62 1017.50 1017.38 1017.25 1017.11
1009.43 1009.64 1009.90 1010.19 1010.50 1010.80 1011.10 1011.38 1011.63 1011.86 1012.08 1012.30 1012.52 1012.76 1013.02 1013.32 1013.64 1013.99 1014.36 1014.75 1015.15 1015.54 1015.93 1016.29 1016.63 1016.95 1017.23 1017.47 1017.68 1017.85 1017.98 1018.07 1018.13 1018.15 1018.15 1018.12 1018.07 1018.00 1017.93 1017.85 1017.77 1017.69 1017.59 1017.48
1010.12 1010.27 1010.46 1010.69 1010.94 1011.19 1011.44 1011.67 1011.89 1012.10 1012.31 1012.51 1012.72 1012.95 1013.21 1013.50 1013.83 1014.19 1014.58 1015.00 1015.44 1015.88 1016.31 1016.72 1017.11 1017.46 1017.76 1018.01 1018.21 1018.36 1018.45 1018.50 1018.51 1018.49 1018.44 1018.38 1018.32 1018.25 1018.20 1018.15 1018.10 1018.05 1018.00 1017.92
1010.90 1011.01 1011.15 1011.32 1011.50 1011.69 1011.87 1012.06 1012.23 1012.40 1012.58 1012.75 1012.95 1013.17 1013.42 1013.71 1014.04 1014.41 1014.81 1015.25 1015.72 1016.19 1016.65 1017.10 1017.51 1017.89 1018.21 1018.46 1018.66 1018.79 1018.86 1018.88 1018.87 1018.82 1018.75 1018.68 1018.61 1018.56 1018.52 1018.49 1018.48 1018.46 1018.44 1018.38
Thickness
5695 5702 5703 5704 5706 5706 5700 5698 5695 5707 5715 5732 5740 5745 5751 5754 5755 5754 5753 5753 5753 5752 5751 5749 5747 5745 5742 5739 5736 5733 5729 5726 5725 5723 5721 5719 5718 5716 5715 5713 5712 5710 5708 5706
5687 5697 5698 5697 5703 5704 5703 5705 5704 5709 5716 5735 5741 5745 5748 5751 5753 5754 5755 5756 5755 5754 5753 5751 5750 5748 5744 5741 5738 5734 5731 5728 5726 5723 5721 5719 5717 5715 5713 5711 5710 5708 5706 5704
5668 5683 5685 5680 5696 5699 5701 5706 5706 5705 5718 5729 5732 5737 5742 5747 5752 5754 5757 5758 5758 5757 5757 5756 5754 5751 5747 5744 5740 5735 5732 5729 5727 5724 5721 5719 5717 5713 5711 5710 5708 5705 5704 5702
5656 5665 5659 5683 5701 5702 5699 5702 5708 5711 5716 5721 5725 5733 5740 5745 5748 5752 5756 5758 5759 5759 5759 5759 5756 5753 5749 5744 5740 5736 5733 5730 5727 5724 5721 5718 5715 5712 5710 5708 5705 5703 5702 5700
5646 5649 5662 5681 5692 5692 5689 5692 5703 5704 5709 5716 5723 5729 5735 5743 5747 5749 5753 5757 5760 5762 5762 5760 5757 5753 5748 5743 5739 5736 5733 5731 5728 5725 5721 5717 5714 5712 5709 5706 5704 5702 5700 5697
5642 5646 5649 5672 5687 5693 5689 5682 5698 5700 5702 5708 5713 5710 5722 5735 5740 5745 5750 5754 5757 5761 5761 5758 5757 5753 5747 5742 5739 5737 5736 5733 5729 5725 5721 5718 5715 5711 5709 5705 5702 5699 5697 5695
5641 5643 5654 5673 5682 5686 5669 5678 5692 5695 5698 5701 5703 5708 5719 5727 5733 5739 5745 5750 5754 5756 5756 5755 5754 5751 5746 5743 5740 5740 5736 5732 5728 5725 5721 5718 5713 5709 5706 5702 5698 5695 5692 5690
5636 5638 5647 5671 5674 5670 5672 5682 5686 5690 5694 5696 5702 5708 5714 5720 5726 5732 5737 5742 5747 5749 5750 5750 5750 5747 5743 5741 5741 5737 5732 5728 5725 5722 5719 5715 5710 5705 5702 5698 5693 5690 5687 5684
5640 5645 5657 5664 5667 5671 5674 5676 5681 5685 5690 5694 5697 5702 5707 5713 5718 5723 5729 5733 5737 5740 5740 5741 5742 5742 5738 5736 5734 5731 5727 5723 5720 5717 5714 5711 5707 5702 5697 5693 5689 5685 5682 5679
5641 5649 5656 5660 5663 5667 5672 5674 5678 5682 5685 5689 5692 5696 5700 5704 5709 5714 5719 5723 5725 5727 5728 5728 5730 5732 5731 5729 5728 5724 5720 5716 5713 5710 5706 5704 5701 5697 5692 5688 5683 5680 5677 5673
5638 5646 5652 5657 5659 5663 5667 5671 5673 5676 5679 5681 5684 5687 5690 5693 5697 5701 5705 5708 5711 5712 5714 5715 5717 5718 5719 5719 5719 5715 5711 5709 5706 5703 5699 5695 5692 5689 5686 5683 5680 5675 5671 5668
5635 5641 5642 5645 5651 5656 5659 5661 5664 5667 5669 5672 5674 5676 5679 5681 5684 5687 5691 5693 5696 5698 5701 5702 5704 5705 5706 5707 5708 5705 5701 5699 5696 5693 5689 5685 5682 5677 5674 5672 5670 5666 5663 5660
5636 5640 5640 5641 5644 5648 5650 5653 5656 5658 5660 5660 5662 5665 5667 5668 5671 5674 5677 5680 5682 5684 5686 5688 5690 5691 5692 5694 5695 5694 5690 5687 5685 5682 5679 5676 5673 5668 5663 5659 5657 5655 5651 5648
5634 5635 5635 5636 5636 5639 5642 5644 5647 5649 5650 5650 5651 5653 5654 5655 5658 5660 5662 5665 5669 5671 5673 5675 5675 5676 5677 5679 5680 5678 5677 5676 5674 5670 5667 5664 5662 5658 5654 5651 5646 5641 5637 5633
5629 5630 5630 5631 5632 5633 5635 5636 5637 5638 5638 5638 5639 5639 5641 5642 5644 5646 5648 5652 5656 5658 5658 5660 5661 5660 5663 5665 5665 5664 5664 5662 5660 5657 5654 5652 5649 5646 5642 5638 5634 5629 5625 5621
5623 5625 5625 5625 5626 5627 5627 5627 5627 5626 5627 5627 5628 5629 5630 5631 5632 5633 5636 5639 5641 5641 5642 5645 5646 5647 5650 5653 5652 5650 5648 5648 5646 5644 5641 5638 5635 5632 5629 5624 5620 5616 5613 5609
5617 5617 5617 5617 5618 5619 5620 5620 5619 5617 5617 5618 5618 5619 5620 5621 5621 5620 5622 5624 5625 5627 5629 5630 5630 5633 5635 5636 5636 5634 5633 5632 5632 5629 5626 5624 5622 5618 5615 5611 5607 5602 5599 5595
5613 5613 5613 5613 5613 5612 5612 5611 5611 5610 5609 5609 5609 5610 5609 5609 5608 5608 5610 5613 5615 5615 5615 5616 5617 5619 5620 5620 5620 5619 5618 5617 5616 5613 5610 5608 5606 5603 5600 5596 5592 5588 5584 5581
5607 5607 5607 5607 5607 5606 5605 5604 5603 5603 5602 5602 5601 5599 5599 5598 5598 5599 5600 5602 5602 5601 5601 5603 5604 5605 5605 5605 5606 5604 5603 5602 5599 5597 5594 5591 5590 5587 5584 5580 5577 5574 5570 5567
5600 5601 5601 5601 5601 5600 5598 5598 5597 5596 5595 5594 5593 5592 5590 5590 5590 5590 5590 5589 5588 5588 5589 5591 5592 5592 5591 5591 5592 5591 5589 5587 5584 5582 5579 5577 5574 5571 5568 5565 5562 5559 5555 5551
5591 5593 5594 5594 5593 5593 5592 5592 5591 5589 5588 5588 5586 5584 5583 5582 5581 5581 5581 5579 5578 5578 5579 5580 5580 5579 5578 5578 5577 5575 5574 5571 5569 5567 5565 5562 5559 5556 5553 5550 5546 5543 5540 5536
5583 5584 5584 5585 5585 5584 5583 5583 5583 5582 5581 5580 5579 5577 5576 5574 5572 5571 5570 5568 5568 5569 5568 5568 5567 5566 5565 5564 5563 5561 5558 5556 5554 5551 5549 5547 5544 5541 5538 5535 5531 5528 5525 5522
5575 5575 5575 5575 5575 5575 5575 5575 5575 5574 5573 5572 5570 5569 5567 5564 5563 5562 5560 5558 5559 5559 5557 5555 5554 5553 5552 5550 5548 5546 5544 5541 5539 5536 5534 5531 5528 5526 5523 5520 5517 5514 5511 5508
5566 5566 5566 5567 5567 5567 5565 5564 5565 5564 5563 5561 5560 5559 5557 5555 5553 5551 5550 5549 5548 5547 5545 5542 5541 5540 5538 5536 5534 5531 5529 5527 5524 5522 5519 5517 5514 5511 5508 5506 5503 5500 5497 5495
5558 5558 5559 5559 5558 5556 5555 5555 5554 5553 5553 5551 5550 5548 5547 5546 5544 5542 5541 5539 5537 5536 5533 5531 5529 5527 5525 5522 5520 5517 5515 5512 5510 5507 5505 5503 5500 5497 5495 5492 5489 5487 5484 5481
5549 5549 5548 5548 5547 5547 5546 5546 5544 5543 5542 5541 5539 5538 5537 5536 5534 5532 5530 5528 5526 5523 5521 5519 5516 5514 5512 5509 5506 5503 5500 5498 5495 5493 5491 5488 5486 5484 5481 5478 5476 5473 5471 5468
5540 5540 5539 5539 5538 5537 5538 5537 5535 5533 5531 5530 5528 5526 5525 5524 5522 5520 5518 5516 5513 5510 5508 5505 5503 5500 5498 5495 5492 5489 5486 5484 5481 5479 5477 5475 5473 5470 5468 5465 5463 5461 5458 5456